PEGASUS DEB

Satellite information

Favourite Embed

Satellite Type and Status

DEBRISIN ORBIT

Key statistics

Satellite PEGASUS DEB at a glance.

Uptime

11481

Days in orbit

Revolutions

≈ 14.9

Per day

Orbit

LEO

Low Earth Orbit

Inclination

81.7

Latest

Satellite identification and parameters

Extended collection of information and parameters for PEGASUS DEB.

Object identification

Identified? True

Debris? True

Object name: PEGASUS DEB

International designator: 1994-029AER

Object number (NORAD): 39306

Object ID (CCSDS): 39306

Country: UNITED STATES OF AMERICA (US)

Current information (Y/N): Y

RCS size: SMALL

Orbital parameters

Period: 96.607 minutes

Inclination: 81.7325 deg

SMA: 6974.264 km

Apoapsis: 699.034 km

Periapsis: 493.225 km

RAAN: 132.6455 deg

Eccentricy: 0.0147549

Argument of periapsis: 143.7247 deg

Mean anomaly: 217.4086 deg

Mean motion: 14.90579558 rev/day

Mean motion (dot): 0.00070017 rev/day2

B* drag term: 0.0057687 1/REarth

Two-line elements (TLE)

Creation date: Oct. 23, 2025, 6:36 a.m.

Reference frame: TEME

Reference center: EARTH

Epoch: Oct. 20, 2025, 6:39 a.m. UTC

TLE line 0: 0 PEGASUS DEB

TLE line 1: 1 39306U 94029AER 25293.27714684 .00070017 00000-0 57687-2 0 9995

TLE line 2: 2 39306 81.7325 132.6455 0147549 143.7247 217.4086 14.90579558 72889

Live tracking on map

Real-time ground track for satellite PEGASUS DEB.

In-orbit conjunctions

A list of the most updated potential collisions computed for object PEGASUS DEB.

Target Orbit TCA Probability of collision Miss distance Type
RUBIN 8/PSLV SSO 2024-11-16 15:27:57 0.0001022154 429.0 (m) PAYLOAD
NOAA 17 DEB SSO 2024-11-10 09:29:43 0.0005354683 198.0 (m) DEBRIS
DMSP 5D-2 F11 DEB SSO 2024-09-26 23:01:02 0.0002344948 210.0 (m) DEBRIS
CZ-4C R/B SSO 2024-08-03 09:14:57 0.0001954908 49.0 (m) ROCKET BODY

Associated space launch

PEGASUS DEB was lifted into orbit during the mission ‘Pegasus HAPS | Space Test Experiments Platform 2 (STEP-2)’, on board a Pegasus HAPS space rocket.

The launch took place on May 19, 1994, 5:03 p.m. from Edwards Air Force Base.

For more information about the launch, click the button.

Launch to space Pegasus HAPS | Space Test Experiments Platform 2 (STEP-2)
Pegasus HAPS | Space Test Experiments Platform 2 (STEP-2)

Agency: N/A

Status: Launch Successful

Launch date: May 19, 1994, 5:03 p.m. UTC

Rocket: Pegasus HAPS

Launch pad: Edwards Air Force Base

Location: Air launch to orbit

...

Latest news about this satellite

There are no fresh news available about this satellite. Check back as we update our databases every day.


Newsletter sign-up

Weekly statistics, charts and insights to help you stay on top of the space industry.